This demonstration page uses our WeatherBlox Daily Observations layout. Learn more.

Left ArrowRight Arrow

Hourly Observations for February 22, 2018

Temp ( °F °C ) Dew Point ( °F °C ) Humidity (%) Winds ( mph kmh ) Pressure ( in mb ) Visibility ( mi km ) Precip ( " mm )
12:19 am 00:19 Mostly Cloudy with Light Snow 22 -5.6 20 -6.7 92 92 NNE 8 13 30.59 1036 1 2 0.03 0.76
12:27 am 00:27 Cloudy with Light Snow 22 -5.6 19 -7.2 89 89 NNE 9 15 30.59 1036 3 5 0.03 0.76
12:34 am 00:34 Cloudy with Light Snow 22 -5.6 19 -7.2 89 89 NE 9 15 30.59 1036 6 10 0.03 0.76
12:54 am 00:54 Cloudy with Light Snow 22 -5.6 19 -7.2 89 89 NE 9 15 30.55 1035 5 8 0.03 0.76
1:54 am 01:54 Cloudy with Light Snow 22 -5.6 19 -7.2 89 89 ENE 10 17 30.53 1034 2 3 0.00 0.03
2:01 am 02:01 Cloudy with Light Snow 22 -5.6 19 -7.2 89 89 NE 12 19 30.56 1035 2 3 0.00 0.03
2:07 am 02:07 Cloudy with Light Snow 22 -5.6 19 -7.2 89 89 NE 10 17 30.56 1035 2 3 0.00 0.03
2:25 am 02:25 Cloudy with Light Snow 22 -5.6 19 -7.2 89 89 NE 10 17 30.56 1035 3 5 0.00 0.03
2:54 am 02:54 Cloudy with Light Snow 22 -5.6 19 -7.2 89 89 ENE 10 17 30.51 1033 3 5 0.00 0.03
3:07 am 03:07 Cloudy with Light Snow 22 -5.6 19 -7.2 89 89 NE 10 17 30.53 1034 4 6 0.00 0.03
3:54 am 03:54 Cloudy with Light Snow 22 -5.6 19 -7.2 89 89 NE 9 15 30.50 1033 4 6 0.01 0.25
4:45 am 04:45 Cloudy with Light Snow 22 -5.6 19 -7.2 89 89 NNE 6 9 30.53 1034 3 5 0.00 0.03
4:52 am 04:52 Cloudy with Light Snow 21 -6 19 -7 93 93 NNE 8 13 30.53 1034 2 3 0.00 0.03
5:06 am 05:06 Cloudy with Light Snow 22 -5.6 19 -7.2 89 89 ENE 9 15 30.50 1033 2 3 0.00 0.03
5:19 am 05:19 Cloudy with Light Snow 22 -5.6 19 -7.2 89 89 NE 5 7 30.53 1034 4 6 0.00 0.03
5:54 am 05:54 Cloudy with Mist and Fog 22 -5.6 19 -7.2 89 89 NE 6 9 30.49 1032 5 8 0.00 0.03
6:03 am 06:03 Cloudy with Mist and Fog 22 -5.6 19 -7.2 89 89 NE 7 11 30.50 1033 5 8 0.00 0.00
6:41 am 06:41 Cloudy with Light Snow 22 -5.6 19 -7.2 89 89 ENE 8 13 30.50 1033 3 5 0.00 0.03
6:49 am 06:49 Cloudy with Light Snow 21 -6 19 -7 93 93 ENE 7 11 30.50 1033 3 4 0.00 0.03
6:54 am 06:54 Cloudy with Light Snow 22 -5.6 20 -6.7 92 92 ENE 6 9 30.47 1032 3 4 0.00 0.03
7:02 am 07:02 Cloudy with Light Snow 22 -5.6 20 -6.7 92 92 ENE 5 7 30.50 1033 3 5 0.00 0.03
7:22 am 07:22 Cloudy with Light Snow 22 -5.6 20 -6.7 92 92 ENE 7 11 30.50 1033 3 4 0.00 0.03
7:30 am 07:30 Cloudy with Light Snow 23 -5 20 -6.7 88 88 ENE 6 9 30.50 1033 3 5 0.00 0.03
7:54 am 07:54 Cloudy 23 -5 20 -6.7 88 88 NE 8 13 30.44 1031 6 10 0.00 0.03
8:33 am 08:33 Cloudy 24 -4.4 21 -6.1 88 88 ENE 10 17 30.45 1031 7 11 0.00 0.00
8:41 am 08:41 Cloudy 24 -4.4 21 -6.1 88 88 E 9 15 30.45 1031 8 13 0.00 0.00
8:54 am 08:54 Cloudy 24 -4.4 21 -6.1 88 88 E 7 11 30.44 1031 8 13 0.00 0.00
9:54 am 09:54 Cloudy 25 -3.9 20 -6.7 81 81 ESE 7 11 30.45 1031 9 14 0.00 0.00
10:56 am 10:56 Cloudy with Mist and Fog 25 -3.9 22 -5.6 88 88 ESE 6 9 30.45 1031 3 4 0.00 0.00
11:20 am 11:20 Cloudy with Mist and Fog 26 -3.3 23 -5 88 88 ENE 6 9 30.42 1030 2 3 0.00 0.00
11:54 am 11:54 Cloudy with Mist and Fog 26 -3.3 23 -5 88 88 ESE 5 7 30.39 1029 2 3 0.00 0.00
12:01 pm 12:01 Cloudy with Mist and Fog 26 -3.3 23 -5 88 88 ESE 5 7 30.39 1029 6 10 0.00 0.00
1:54 pm 13:54 Cloudy with Mist and Fog 28 -2.2 25 -3.9 88 88 SE 7 11 30.34 1027 3 5 0.00 0.03
2:54 pm 14:54 Cloudy with Mist and Fog 29 -1.7 26 -3.3 89 89 E 6 9 30.27 1025 5 8 0.00 0.00
3:54 pm 15:54 Cloudy 30 -1.1 27 -2.8 88 88 ESE 10 17 30.25 1024 8 13 0.00 0.00
4:54 pm 16:54 Cloudy 30 -1.1 27 -2.8 88 88 ESE 7 11 30.23 1024 8 13 0.00 0.00
5:46 pm 17:46 Cloudy with Mist and Fog 29 -1.7 27 -2.8 92 92 ESE 3 6 30.27 1025 2 3 0.00 0.00
5:54 pm 17:54 Cloudy with Mist and Fog 29 -1.7 28 -2.2 96 96 E 3 6 30.22 1023 2 2 0.00 0.00
6:02 pm 18:02 Cloudy with Light Freezing Rain 29 -1.7 28 -2.2 96 96 Calm 30.27 1025 2 2 0.00 0.03
6:09 pm 18:09 Cloudy with Light Freezing Rain 30 -1.1 28 -2.2 92 92 S 5 7 30.27 1025 3 5 0.01 0.25
6:27 pm 18:27 Cloudy with Light Freezing Rain 30 -1.1 28 -2.2 92 92 SSW 5 7 30.30 1026 3 4 0.02 0.51
6:50 pm 18:50 Cloudy with Light Freezing Rain 30 -1 28 -2 93 93 S 6 9 30.30 1026 3 4 0.03 0.76
6:54 pm 18:54 Cloudy with Light Freezing Rain 30 -1.1 29 -1.7 96 96 S 6 9 30.25 1024 2 3 0.03 0.76
7:03 pm 19:03 Cloudy with Mist and Fog 30 -1.1 29 -1.7 96 96 S 7 11 30.30 1026 3 4 0.01 0.25
7:13 pm 19:13 Cloudy with Mist and Fog 30 -1.1 28 -2.2 92 92 S 7 11 30.30 1026 3 5 0.01 0.25
7:28 pm 19:28 Cloudy with Mist and Fog 30 -1.1 29 -1.7 96 96 S 5 7 30.30 1026 3 4 0.02 0.51
7:35 pm 19:35 Cloudy with Mist and Fog 30 -1.1 29 -1.7 96 96 S 5 7 30.30 1026 3 4 0.02 0.51
7:44 pm 19:44 Cloudy with Mist and Fog 30 -1.1 29 -1.7 96 96 S 5 7 30.30 1026 3 5 0.02 0.51
7:54 pm 19:54 Cloudy with Mist and Fog 30 -1.1 29 -1.7 96 96 S 3 6 30.24 1024 4 6 0.02 0.51
8:18 pm 20:18 Cloudy with Mist and Fog 30 -1.1 29 -1.7 96 96 Calm 30.27 1025 3 5 0.01 0.25
8:29 pm 20:29 Cloudy with Mist and Fog 30 -1.1 29 -1.7 96 96 Calm 30.27 1025 5 8 0.01 0.25
8:54 pm 20:54 Cloudy with Mist and Fog 30 -1.1 28 -2.2 92 92 Calm 30.24 1024 4 6 0.01 0.25
9:05 pm 21:05 Cloudy with Mist and Fog 30 -1.1 29 -1.7 96 96 W 5 7 30.30 1026 3 4 0.00 0.00
9:15 pm 21:15 Cloudy with Mist and Fog 30 -1.1 29 -1.7 96 96 W 3 6 30.30 1026 2 3 0.00 0.00
9:29 pm 21:29 Cloudy with Mist and Fog 30 -1.1 29 -1.7 96 96 W 3 6 30.30 1026 3 5 0.00 0.00
9:43 pm 21:43 Cloudy with Mist and Fog 30 -1.1 29 -1.7 96 96 W 3 6 30.27 1025 4 6 0.00 0.00
9:50 pm 21:50 Cloudy with Mist and Fog 30 -1 28 -2 93 93 W 3 6 30.27 1025 4 6 0.00 0.00
9:54 pm 21:54 Cloudy with Mist and Fog 30 -1.1 29 -1.7 96 96 Calm 30.23 1024 4 6 0.00 0.00
10:05 pm 22:05 Cloudy with Mist and Fog 30 -1.1 29 -1.7 96 96 W 3 6 30.27 1025 4 6 0.00 0.00
10:43 pm 22:43 Cloudy 31 -0.6 29 -1.7 92 92 Calm 30.27 1025 7 11 0.00 0.00
10:54 pm 22:54 Cloudy 31 -0.6 29 -1.7 92 92 Calm 30.20 1023 7 11 0.00 0.00
11:05 pm 23:05 Cloudy 30 -1.1 29 -1.7 96 96 WNW 3 6 30.27 1025 8 13 0.00 0.00
11:54 pm 23:54 Cloudy 30 -1.1 27 -2.8 88 88 NW 6 9 30.24 1024 8 13 0.00 0.00

Powered by AerisWeather